| time (UTC) | temp F | wind direction | speed knots | gust knots | rain 1hr in | rain 24hr in | rain mn in | humidity % | barometer mb |
| 20260906222441 | 48 | 270 | 15.6 | 0.0 | 0.00 | 0.00 | 0.00 | 12 | |
| 20260906211958 | 46 | 240 | 4.3 | 0.0 | 0.00 | 0.00 | 0.00 | 28 | |
| 20260906201956 | 46 | 290 | 10.4 | 0.0 | 0.00 | 0.00 | 0.00 | 17 | |
| 20260906192300 | 41 | 300 | 6.1 | 0.0 | 0.00 | 0.00 | 0.00 | 75 | |
| 20260906181958 | 39 | 320 | 12.2 | 0.0 | 0.00 | 0.00 | 0.00 | 99 | |
| 20260906171956 | 39 | 290 | 10.4 | 0.0 | 0.00 | 0.00 | 0.00 | 99 | |
| 20260906162401 | 41 | 300 | 12.2 | 0.0 | 0.00 | 0.00 | 0.00 | 93 | |
| 20260906151941 | 41 | 300 | 13.9 | 0.0 | 0.00 | 0.00 | 0.00 | 93 | |
| 20260906141956 | 41 | 300 | 10.4 | 0.0 | 0.00 | 0.00 | 0.00 | 86 | |
| 20260906132259 | 41 | 280 | 13.9 | 0.0 | 0.00 | 0.00 | 0.00 | 86 | |
| 20260906121958 | 41 | 270 | 15.6 | 0.0 | 0.00 | 0.00 | 0.00 | 86 | |
| 20260906111959 | 39 | 280 | 26.9 | 0.0 | 0.00 | 0.00 | 0.00 | 86 | |
| 20260906102400 | 39 | 290 | 33.0 | 42.6 | 0.00 | 0.00 | 0.00 | 99 | |
| 20260906091958 | 37 | 280 | 40.8 | 51.3 | 0.00 | 0.00 | 0.00 | 93 | |
| 20260906081959 | 36 | 290 | 37.4 | 0.0 | 0.00 | 0.00 | 0.00 | 99 | |
| 20260906072305 | 37 | 290 | 34.8 | 46.9 | 0.00 | 0.00 | 0.00 | 99 | |
| 20260906061958 | 36 | 280 | 42.6 | 0.0 | 0.00 | 0.00 | 0.00 | 99 | |
| 20260906042359 | 37 | 280 | 42.6 | 52.1 | 0.00 | 0.00 | 0.00 | 99 | |
| 20260906031957 | 37 | 280 | 40.8 | 52.1 | 0.00 | 0.00 | 0.00 | 99 | |
| 20260906021957 | 39 | 280 | 45.2 | 58.2 | 0.00 | 0.00 | 0.00 | 99 | |
| 20260906012258 | 39 | 280 | 48.7 | 58.2 | 0.00 | 0.00 | 0.00 | 99 | |
| 20260906001958 | 39 | 280 | 55.6 | 67.8 | 0.00 | 0.00 | 0.00 | 99 | |
| 20260905231941 | 39 | 280 | 39.1 | 58.2 | 0.00 | 0.00 | 0.00 | 99 |